Weather History for Hurlburt Field, FL

Change the Weather History Date:

Saturday, May 18, 2013

  Actual Average Record
Temperature  
Mean Temperature 76 °F -  
Max Temperature 81 °F 81 °F 91 °F (1998)
Min Temperature 72 °F 64 °F 45 °F (2011)
Cooling Degree Days 11    
Growing Degree Days 26 (Base 50)    
Moisture  
Dew Point 75 °F    
Average Humidity 99    
Maximum Humidity 100    
Minimum Humidity 95    
Precipitation  
Precipitation 0.00 in - - ()
Sea Level Pressure  
Sea Level Pressure 30.06 in    
Wind  
Wind Speed 8 mph (SSW)    
Max Wind Speed 14 mph    
Max Gust Speed -    
Visibility 10 miles    
Events      
Averages and records for this station are not official NWS values.
T = Trace of Precipitation, MM = Missing Value Source: NWS Daily Summary

Daily Weather History Graph

Daily Weather History Graph

Search for Another Location

Airport:

Trip Planner

Search our weather history database for the weather conditions in past years. The results will help you decide how hot, cold, wet, or windy it might be!

Date:

Astronomy

May. 18, 2013 Rise Set
Actual Time 5:50 AM CDT 7:36 PM CDT
Civil Twilight 5:24 AM CDT 8:02 PM CDT
Nautical Twilight 4:52 AM CDT 8:34 PM CDT
Astronomical Twilight 4:18 AM CDT 9:08 PM CDT
Moon 1:06 PM CDT (5/18) 1:13 AM CDT (5/18)
Length of Visible Light 14h 38m
Length of Day
13h 45m
First Quarter, 55% of the Moon is Illuminated
May 18
First Quarter
May 24
Full
May 31
Last Quarter
Jun 8
New
Jun 16
First Quarter

Hourly Weather History & Observations

Time (CDT) Temp. Heat Index Dew Point Humidity Pressure Visibility Wind Dir Wind Speed Gust Speed Precip Events Conditions
12:28 AM 73.4 °F - 73.4 °F 100% 30.05 in 10.0 mi South 9.2 mph - N/A   Overcast
12:58 AM 73.2 °F - 73.2 °F 100% 30.06 in 10.0 mi SSW 8.1 mph - N/A   Overcast
1:58 AM 73.2 °F - 73.2 °F 100% 30.04 in 10.0 mi SSW 8.1 mph - N/A   Overcast
2:48 AM 73.4 °F - 73.4 °F 100% 30.03 in 10.0 mi SSW 8.1 mph - N/A   Overcast
2:58 AM 73.4 °F - 73.4 °F 100% 30.04 in 10.0 mi SW 6.9 mph - N/A   Mostly Cloudy
3:43 AM 73.4 °F - 73.4 °F 100% 30.03 in 10.0 mi SSW 6.9 mph - N/A   Scattered Clouds
3:58 AM 72.9 °F - 72.9 °F 100% 30.04 in 10.0 mi SSW 4.6 mph - N/A   Partly Cloudy
4:48 AM 73.4 °F - 73.4 °F 100% 30.04 in 10.0 mi SW 4.6 mph - N/A   Mostly Cloudy
4:58 AM 72.9 °F - 72.9 °F 100% 30.05 in 10.0 mi SW 4.6 mph - N/A   Scattered Clouds
5:58 AM 72.7 °F - 72.7 °F 100% 30.06 in 10.0 mi SW 3.5 mph - N/A   Clear
6:58 AM 73.8 °F - 73.8 °F 100% 30.08 in 10.0 mi WSW 1.2 mph - N/A   Clear
7:58 AM 75.2 °F - 75.2 °F 100% 30.09 in 10.0 mi South 6.9 mph - N/A   Partly Cloudy
8:58 AM 77.0 °F - 77.0 °F 100% 30.11 in 10.0 mi South 8.1 mph - N/A   Partly Cloudy
9:58 AM 78.4 °F - 78.4 °F 100% 30.12 in 10.0 mi South 9.2 mph - N/A   Partly Cloudy
10:58 AM 78.8 °F - 78.8 °F 100% 30.12 in 10.0 mi SSE 10.4 mph - N/A   Scattered Clouds
11:58 AM 79.7 °F - 79.3 °F 99% 30.10 in 10.0 mi South 12.7 mph - N/A   Clear
12:58 PM 80.6 °F 88.3 °F 79.0 °F 95% 30.09 in 10.0 mi South 11.5 mph - N/A   Scattered Clouds
1:58 PM 80.1 °F 86.6 °F 78.4 °F 95% 30.08 in 10.0 mi SSE 10.4 mph - N/A   Partly Cloudy
2:58 PM 79.9 °F - 78.6 °F 96% 30.08 in 10.0 mi SSE 10.4 mph - N/A   Partly Cloudy
3:58 PM 79.5 °F - 78.3 °F 96% 30.07 in 10.0 mi SSE 12.7 mph - N/A   Partly Cloudy
5:00 PM 78.8 °F - 78.8 °F 100% 30.06 in 10.0 mi South 13.8 mph - N/A   Scattered Clouds
5:58 PM 77.5 °F - 77.5 °F 100% 30.05 in 10.0 mi South 11.5 mph - N/A   Clear
6:58 PM 75.9 °F - 75.9 °F 100% 30.05 in 10.0 mi SSW 8.1 mph - N/A   Partly Cloudy
7:58 PM 74.5 °F - 74.5 °F 100% 30.05 in 10.0 mi South 6.9 mph - N/A   Scattered Clouds
8:58 PM 74.1 °F - 74.1 °F 100% 30.06 in 10.0 mi South 6.9 mph - N/A   Partly Cloudy
9:38 PM 73.4 °F - 73.4 °F 100% 30.05 in 10.0 mi SSW 4.6 mph - N/A   Mostly Cloudy
9:43 PM 73.4 °F - 73.4 °F 100% 30.05 in 10.0 mi South 3.5 mph - N/A   Scattered Clouds
9:48 PM 73.4 °F - 73.4 °F 100% 30.05 in 10.0 mi South 3.5 mph - N/A   Mostly Cloudy
9:58 PM 73.9 °F - 73.9 °F 100% 30.06 in 10.0 mi SSW 5.8 mph - N/A   Mostly Cloudy
10:08 PM 73.4 °F - 73.4 °F 100% 30.05 in 10.0 mi SSW 5.8 mph - N/A   Scattered Clouds
10:13 PM 73.4 °F - 73.4 °F 100% 30.06 in 10.0 mi SSW 5.8 mph - N/A   Mostly Cloudy
10:23 PM 73.4 °F - 73.4 °F 100% 30.06 in 10.0 mi SSW 5.8 mph - N/A   Mostly Cloudy
10:28 PM 73.4 °F - 73.4 °F 100% 30.06 in 10.0 mi SSW 5.8 mph - N/A   Scattered Clouds
10:58 PM 74.1 °F - 74.1 °F 100% 30.06 in 10.0 mi South 5.8 mph - N/A   Partly Cloudy
11:53 PM 73.4 °F - 73.4 °F 100% 30.04 in 10.0 mi SSW 5.8 mph - N/A   Mostly Cloudy
11:58 PM 73.8 °F - 73.8 °F 100% 30.05 in 10.0 mi SSW 5.8 mph - N/A   Scattered Clouds